Theta_e
351 350 349 348 348 348 348 349 349 351 351 351 350 350 349 350 350 350 349 349 349 349 349 348 346 345 345 345 344 344 346 346 346 348 346 349 348 336 332 335 336 338 340 341 342 343 344 346 347 347 348 349 350 349 349 349 348 348 349 350 349 350 351 350 350 350 349 349 349 350 349 347 345 344 344 343 344 343 342 342 342 341 338 337 333
351 350 349 349 349 349 349 349 351 351 351 350 351 351 350 349 350 350 350 350 349 350 349 348 346 344 345 345 344 344 346 347 347 349 348 349 350 343 339 339 339 340 341 342 342 342 342 343 343 343 344 345 345 345 345 345 344 344 345 345 345 346 347 346 345 345 345 345 346 346 345 343 340 338 338 337 337 337 336 336 336 335 334 336 335
351 350 349 350 350 350 350 350 351 351 351 351 351 351 350 350 351 351 351 351 349 350 349 347 346 345 345 344 345 344 345 347 346 346 348 350 352 350 347 344 343 343 343 343 343 343 344 344 344 344 344 344 344 344 344 344 343 343 343 342 343 343 343 343 344 344 345 346 346 346 345 344 343 343 342 340 338 335 334 334 333 336 339 342 342
351 351 352 352 352 351 352 352 351 351 351 351 352 351 351 350 351 352 351 351 349 349 349 346 345 345 345 344 345 345 346 346 344 344 347 349 352 352 351 350 348 347 347 347 346 346 346 346 346 346 346 346 346 345 344 344 343 342 342 342 342 342 343 344 345 346 347 348 348 349 349 349 349 349 349 347 345 341 338 336 334 338 341 343 342
352 353 353 354 354 353 352 352 352 352 353 354 352 351 350 350 350 350 350 350 348 348 348 345 344 345 345 344 345 345 346 346 345 346 346 348 350 351 352 352 352 350 349 349 349 349 349 349 349 348 348 348 348 347 345 344 343 343 343 343 343 344 345 346 347 348 349 349 350 350 350 351 351 351 351 351 351 349 347 345 342 340 340 340 339
352 354 354 354 353 353 352 352 353 353 354 354 352 351 351 350 349 349 349 349 348 348 347 345 344 345 345 345 345 345 346 346 346 346 346 346 347 349 350 351 352 352 351 350 349 349 349 349 350 350 350 350 350 349 348 346 344 344 344 345 345 346 347 347 348 349 350 350 350 350 350 350 351 350 351 351 351 352 351 351 350 348 346 344 341
353 355 355 354 353 352 353 354 355 354 353 354 353 351 351 351 351 351 349 348 347 347 346 345 344 345 346 345 345 346 346 346 347 346 346 347 347 348 349 350 351 352 351 351 350 349 348 349 349 350 350 350 351 350 350 348 345 345 345 345 346 346 347 348 348 349 349 350 350 350 350 350 351 351 351 351 351 351 351 351 351 352 351 351 349
353 355 356 354 353 352 353 355 356 356 354 354 353 351 351 351 352 352 351 351 349 346 345 345 344 344 345 345 345 346 346 346 346 346 346 346 347 347 348 349 350 349 350 351 352 350 348 348 349 349 349 349 349 349 349 348 346 345 345 345 346 346 347 347 348 349 349 350 350 350 351 351 351 351 351 351 351 351 351 351 350 351 351 351 352
353 355 356 354 354 353 353 356 357 357 356 354 352 352 352 352 352 352 353 352 348 346 345 344 344 344 344 344 345 345 345 346 346 345 346 347 346 346 346 347 348 349 349 349 350 351 349 348 348 348 348 348 348 348 347 348 346 345 345 345 345 346 346 346 347 348 348 348 349 349 349 350 350 350 350 351 351 352 352 351 351 350 351 350 350
354 355 356 354 353 354 354 357 358 358 357 354 352 353 353 353 353 353 354 353 349 347 346 345 344 343 344 344 344 345 345 346 346 346 347 346 346 346 345 346 347 347 348 348 347 350 350 349 349 349 348 347 347 347 347 347 346 346 345 344 345 345 345 346 346 347 347 347 347 348 348 349 349 349 349 350 350 351 352 352 351 351 350 350 349
354 355 357 355 354 355 356 357 358 358 357 354 353 354 356 356 354 354 356 354 351 349 347 346 345 343 343 343 343 344 345 345 346 346 345 344 344 345 345 345 346 346 347 348 347 348 349 350 352 351 349 348 347 346 347 347 347 346 346 346 345 346 346 346 347 347 347 347 347 348 349 349 350 350 350 350 350 351 351 351 351 351 350 349 348
354 355 356 356 356 356 357 357 357 358 358 357 355 356 358 358 356 357 357 352 350 348 346 345 344 343 343 343 343 344 345 345 346 345 344 344 342 343 344 344 345 345 346 346 345 346 347 350 352 350 349 349 347 345 346 345 346 346 345 346 346 346 347 346 347 347 347 348 348 349 350 350 351 350 351 350 351 350 351 351 350 350 349 348 347
354 355 356 356 356 358 358 358 358 359 360 360 358 359 359 358 358 359 356 351 349 346 345 347 344 343 343 342 343 343 344 345 344 344 344 344 343 342 344 343 344 345 345 346 346 346 346 348 350 349 349 349 347 347 347 346 346 346 345 345 346 346 347 347 347 348 348 349 350 350 350 350 349 349 349 349 350 350 351 351 350 350 349 348 346
355 356 357 357 357 358 358 358 359 360 361 360 358 359 359 359 359 358 355 351 349 347 348 350 344 341 344 343 343 343 344 343 343 342 341 341 342 343 343 343 343 344 344 345 346 346 346 346 347 347 348 349 349 348 349 349 349 347 345 345 345 346 347 347 348 348 349 349 349 349 348 347 346 345 345 346 347 349 350 350 351 350 350 350 348
355 355 356 358 358 357 357 358 360 360 361 360 359 359 359 360 359 358 357 352 348 347 348 349 344 341 344 344 343 342 343 343 342 341 340 341 341 341 342 341 343 344 344 345 346 346 346 345 345 348 352 351 349 349 349 351 350 346 344 345 346 347 348 348 349 349 348 348 347 346 346 344 344 344 344 345 345 346 347 349 351 351 351 350 350
355 355 356 358 358 358 357 358 360 359 360 359 358 358 358 359 360 359 358 353 348 347 348 348 347 346 346 344 341 341 342 342 341 342 340 340 340 340 341 342 343 344 344 344 343 344 344 344 345 350 355 353 350 351 351 350 349 348 348 348 347 349 349 349 349 348 346 346 346 346 346 345 345 346 347 347 346 346 346 347 348 350 352 351 351
356 356 357 358 358 358 359 359 359 359 359 359 358 358 357 359 360 360 358 356 354 349 347 347 348 351 352 348 343 342 342 341 342 344 342 339 341 342 342 343 344 343 344 344 344 345 345 346 346 350 354 354 353 354 352 350 351 354 355 351 348 349 349 348 347 346 345 346 347 347 348 347 347 348 348 348 349 349 349 347 347 348 349 349 351
355 355 357 358 358 359 360 360 359 359 358 358 358 358 357 357 359 360 358 359 360 355 348 347 349 351 351 348 346 344 344 343 343 345 345 342 342 343 343 343 344 344 345 345 346 347 347 348 347 348 352 354 357 356 353 352 353 355 353 349 349 348 348 348 346 345 345 346 347 347 346 346 345 346 346 348 349 351 352 351 350 349 349 348 349
354 355 356 358 360 359 359 359 358 358 357 358 358 357 357 358 359 360 359 361 361 358 354 349 349 349 347 346 346 346 346 346 345 346 347 347 344 343 343 343 344 345 345 346 347 348 349 350 348 348 351 351 353 355 353 351 353 355 350 346 348 347 348 348 345 344 345 346 346 345 345 344 344 345 345 346 349 352 354 353 353 352 352 351 348
355 355 356 358 360 360 360 359 358 358 356 357 357 357 358 359 360 361 361 361 360 359 358 355 351 350 348 348 347 347 348 347 347 346 347 348 347 345 344 345 344 345 347 347 348 349 352 353 350 351 352 350 350 352 353 351 353 357 352 346 347 347 347 346 344 344 345 346 346 345 345 345 344 345 345 347 348 350 352 352 352 352 352 352 350
355 356 356 357 358 360 360 359 358 357 356 357 357 357 358 359 360 360 361 361 359 360 361 358 354 353 351 352 350 349 349 348 348 348 348 347 347 347 347 347 346 348 350 348 349 350 351 352 351 351 352 353 353 353 354 353 353 356 351 346 346 346 346 345 344 344 344 345 346 346 346 345 345 345 346 347 348 350 351 352 352 352 352 352 352
353 354 355 356 357 358 358 358 357 356 357 358 358 357 357 358 360 360 360 361 360 359 360 358 357 355 354 354 353 351 350 350 349 349 348 348 349 348 348 348 348 349 350 349 349 351 351 351 351 351 351 353 354 353 355 354 352 350 347 344 345 346 346 344 344 344 345 346 346 346 346 345 345 344 346 348 350 352 353 354 355 355 355 352 352
350 351 353 355 356 358 358 357 358 357 357 358 357 357 356 357 359 359 360 361 360 359 359 358 357 356 354 353 352 350 350 350 350 350 349 350 349 348 348 348 348 349 350 351 349 349 352 351 351 351 351 352 353 353 354 354 351 346 344 344 343 345 345 344 345 346 346 347 346 346 346 344 345 346 347 350 352 354 355 357 357 356 357 354 353
351 351 353 354 356 358 357 358 358 357 357 358 358 357 357 357 358 359 359 359 359 359 359 357 356 356 354 353 351 350 350 350 350 350 350 351 350 349 348 348 349 348 349 352 351 350 352 352 351 351 351 352 352 352 350 352 350 342 344 348 344 345 346 346 347 347 346 347 345 345 345 345 347 347 349 351 353 355 355 356 357 357 357 355 354
353 352 352 352 355 358 358 358 359 358 358 359 360 359 358 358 358 358 359 359 358 359 358 357 357 356 353 353 352 350 350 351 351 349 349 350 351 351 351 351 350 348 349 352 351 350 350 351 352 351 351 350 349 349 347 348 348 341 345 352 348 347 348 347 347 346 346 346 345 346 346 347 348 349 351 353 355 355 355 356 355 356 356 356 356
353 352 352 352 353 356 358 358 359 359 359 360 360 360 359 359 359 358 358 358 358 358 357 355 356 356 355 354 353 351 352 352 351 351 349 349 350 351 353 352 350 348 348 350 351 350 350 350 350 351 352 349 348 348 345 344 348 344 345 351 351 349 346 345 346 346 347 347 347 348 348 349 349 350 353 355 355 354 355 356 354 354 355 354 355
352 353 354 353 354 356 357 358 359 360 359 359 359 360 361 359 360 360 358 358 358 357 357 355 355 356 355 355 354 352 352 352 351 351 351 351 350 351 352 353 353 351 348 349 350 350 350 349 350 350 351 349 348 347 344 345 347 346 347 349 349 351 348 345 346 347 349 349 349 350 350 350 350 351 354 355 355 353 353 354 354 354 354 353 353
353 353 354 355 354 356 357 357 358 359 359 359 358 360 362 360 359 360 359 358 358 358 358 356 355 355 354 355 355 353 352 353 352 350 352 353 352 352 352 353 356 356 352 352 353 351 350 350 350 351 350 349 348 346 345 346 344 343 347 346 345 350 349 345 347 349 350 350 350 351 350 351 351 352 355 355 355 354 353 353 353 353 353 353 353
353 352 352 354 354 355 356 357 358 359 359 359 358 359 361 360 360 361 360 359 360 359 358 357 356 355 354 354 355 354 352 353 353 352 354 357 355 355 355 355 358 358 356 356 356 352 350 350 350 352 351 349 347 344 342 344 342 341 345 345 345 348 347 346 348 350 350 350 351 351 351 351 352 353 354 355 355 354 354 354 353 353 352 352 352
352 352 352 354 355 356 357 357 358 358 358 358 357 357 359 359 360 361 361 361 361 361 360 359 357 356 355 354 355 354 353 354 354 353 355 359 358 357 357 357 358 359 358 359 358 354 351 351 350 351 351 348 345 342 339 341 343 343 345 346 347 348 348 351 353 353 353 352 351 352 351 351 353 354 355 355 354 355 354 355 354 354 353 352 352
353 354 354 354 355 356 357 357 357 358 358 357 357 357 358 359 359 359 359 361 362 361 360 360 358 357 357 356 356 356 355 355 355 354 355 358 358 356 356 358 359 359 359 360 360 355 351 352 351 348 347 346 343 341 340 340 343 345 348 349 350 352 354 356 356 355 356 354 352 352 351 352 353 354 354 354 354 354 353 353 353 353 352 352 352
354 355 355 354 355 356 356 355 355 355 356 356 356 357 358 358 358 358 358 362 362 361 359 358 357 357 358 358 358 358 357 356 355 355 355 356 356 356 356 357 358 359 360 360 360 358 354 353 351 346 344 344 342 343 345 343 342 346 350 350 352 354 356 356 355 356 357 355 353 351 352 353 353 353 352 352 352 352 352 353 352 352 352 352 353
354 355 355 355 355 356 355 355 354 355 356 357 356 357 357 358 359 358 358 361 361 360 359 358 357 357 358 359 359 359 359 358 357 354 353 353 354 355 356 357 357 357 359 361 360 360 359 355 351 347 345 345 343 344 347 346 346 349 350 350 350 352 352 353 353 356 357 355 352 351 352 353 352 351 351 351 352 352 352 352 352 352 352 353 353
356 355 355 355 355 356 356 355 356 356 357 358 357 356 357 358 359 358 357 359 360 359 359 358 357 356 357 359 359 359 358 358 358 356 353 352 352 353 354 355 355 355 358 360 360 359 358 355 352 348 345 345 345 346 348 349 350 353 352 350 348 348 351 351 351 354 356 354 353 352 352 352 351 351 351 351 351 352 352 352 351 351 352 353 354
356 356 355 355 356 357 357 357 358 358 358 359 357 356 357 358 359 358 356 357 359 358 358 357 356 355 356 357 358 358 357 357 359 357 355 354 354 354 354 353 354 353 354 358 359 358 356 353 352 348 345 346 347 347 349 350 352 354 354 352 348 348 352 353 351 353 355 354 354 354 353 351 351 351 350 349 349 350 351 351 349 348 349 350 352
355 356 356 356 357 358 358 358 358 359 359 358 358 357 357 358 359 359 357 358 358 357 357 356 355 354 355 355 356 356 356 358 360 358 356 356 355 355 354 354 353 352 352 353 355 356 355 354 352 350 349 349 350 349 350 350 352 353 355 356 354 354 357 356 353 352 354 355 355 355 353 351 352 350 345 341 342 345 348 350 349 345 342 344 349
354 356 356 357 357 358 358 358 358 359 359 359 359 358 358 358 359 359 359 359 359 359 358 357 356 355 355 355 356 356 357 358 360 358 357 357 357 356 355 354 353 353 353 352 353 354 355 353 352 351 351 352 352 353 353 353 353 352 354 356 357 358 359 357 354 353 354 355 355 355 353 352 352 349 339 329 328 331 333 338 341 337 334 340 348
355 356 357 357 357 358 358 357 357 359 360 360 361 360 358 358 358 358 359 359 360 359 359 358 358 357 356 356 357 357 357 358 358 358 358 358 357 356 355 354 352 352 352 352 352 353 355 354 353 352 352 353 353 354 355 356 356 356 356 357 357 357 358 357 355 355 354 355 355 355 353 351 352 351 342 331 326 323 323 324 326 327 334 344 351
356 355 356 357 357 358 359 358 357 358 360 361 362 362 360 359 358 359 359 359 359 359 358 358 358 357 357 357 358 358 358 359 359 358 358 358 357 355 356 354 353 354 353 351 350 351 353 353 352 352 351 351 354 354 355 357 359 359 359 359 358 357 357 356 355 355 355 355 354 353 352 349 350 351 346 339 335 329 327 324 322 328 339 348 352
356 355 355 356 357 357 358 358 357 358 360 361 362 362 361 359 359 359 359 359 359 358 358 358 357 357 357 357 357 357 357 358 360 360 358 358 357 357 356 353 353 355 355 352 351 351 351 350 351 352 351 352 355 355 354 356 358 360 359 358 358 356 354 355 355 356 356 355 354 354 352 349 350 351 347 343 340 336 333 330 327 332 341 345 347
356 355 355 355 356 357 357 358 358 358 358 359 360 361 361 360 360 358 358 359 358 358 358 358 358 358 357 357 356 355 355 357 359 359 358 357 357 358 357 356 357 358 358 356 354 353 352 351 353 353 352 353 354 352 352 352 354 357 359 358 356 354 353 354 354 356 356 354 353 354 352 347 346 350 350 344 340 337 335 333 331 335 338 337 337
356 356 356 357 357 357 357 358 358 358 358 357 358 358 359 358 358 358 358 358 359 360 360 359 359 359 357 357 355 353 354 356 357 357 356 355 355 354 356 357 358 360 360 357 355 353 353 353 353 351 351 350 349 348 349 348 350 355 357 355 354 354 355 355 355 356 355 352 351 352 352 348 344 347 349 345 339 335 335 333 334 335 335 332 330
359 358 357 357 357 356 356 357 356 356 355 354 355 355 355 355 355 357 357 358 360 362 361 359 358 357 356 356 354 352 354 356 356 356 357 357 356 352 352 353 353 356 358 355 352 351 351 353 353 351 350 349 349 349 349 349 353 355 355 354 355 356 356 356 355 355 353 350 349 350 350 348 344 345 348 344 337 334 333 332 332 333 333 332 331
360 359 358 358 357 357 357 356 355 355 355 353 353 354 354 354 354 355 357 357 357 357 358 358 358 357 357 357 357 356 355 355 355 356 356 358 358 354 351 350 349 350 352 352 351 351 351 353 354 352 351 351 352 352 353 355 357 355 354 355 357 356 356 355 354 353 351 348 347 348 349 347 343 343 347 344 336 332 331 329 330 331 331 331 331
359 359 358 358 358 358 357 357 357 357 357 356 354 354 355 354 352 353 355 354 354 353 355 357 357 357 358 359 359 357 355 354 355 356 357 358 359 359 356 352 350 350 349 349 348 348 349 352 354 354 356 356 356 356 357 357 356 355 355 355 355 355 354 352 351 350 349 347 346 345 346 345 341 340 344 344 337 332 329 326 327 328 329 329 330
361 361 359 359 359 359 358 358 358 358 357 357 355 352 353 354 351 352 353 352 352 352 353 356 356 356 359 361 360 359 357 357 356 357 359 359 359 361 360 356 355 355 354 353 351 348 349 352 353 355 358 359 358 358 357 355 354 354 354 353 353 352 351 350 349 348 348 346 343 341 341 342 341 338 341 342 338 333 330 326 325 326 327 327 327
361 362 361 360 361 360 360 359 358 357 354 353 352 350 352 353 351 351 354 355 356 355 355 355 355 355 358 359 360 359 359 359 358 358 359 359 357 358 358 357 358 357 356 356 357 356 355 356 356 356 358 357 355 354 354 353 353 352 351 350 350 349 348 347 345 343 345 343 339 336 335 336 339 337 337 339 338 334 332 329 327 326 326 327 326
360 362 361 361 361 361 362 361 360 358 354 352 352 351 352 352 351 351 354 356 358 359 356 354 355 356 358 359 359 358 357 357 357 358 359 359 357 356 355 355 356 356 355 355 356 356 354 354 355 354 354 353 352 351 350 348 348 348 348 348 347 344 343 343 339 335 338 339 336 333 329 331 337 337 333 333 336 336 334 332 330 327 326 326 326
359 359 359 358 357 357 358 358 358 356 354 353 352 351 350 350 349 351 354 357 359 360 358 357 358 357 356 357 358 357 355 354 357 359 359 357 354 354 355 354 353 354 353 352 352 352 350 351 351 352 351 350 348 346 344 342 341 341 342 342 339 337 335 336 334 329 331 336 334 330 327 329 335 336 331 329 332 335 335 333 332 330 328 326 325
358 357 356 355 354 354 353 353 353 352 349 348 348 346 346 347 347 349 354 356 357 358 359 359 360 356 353 355 356 354 352 353 354 355 354 352 351 354 356 354 352 352 350 348 349 350 349 348 348 348 346 343 341 338 336 335 331 330 333 334 331 331 331 332 332 328 329 333 330 325 325 329 331 333 331 328 329 333 336 334 332 332 330 328 326
354 353 353 353 352 352 350 348 348 347 344 342 342 343 343 344 345 347 352 355 355 356 356 356 356 352 350 352 353 349 349 349 349 350 350 349 349 351 354 353 351 350 348 347 347 346 345 344 343 341 338 335 332 330 329 328 324 324 329 331 329 330 331 331 332 331 330 332 326 322 325 328 328 330 330 328 329 332 335 333 331 331 330 328 327
Wind_Speed
9 8 8 8 7 7 7 6 6 5 4 4 4 4 4 4 4 4 5 4 5 6 5 5 7 7 7 7 7 7 7 7 7 7 7 7 6 8 10 9 9 8 7 6 5 4 3 2 1 2 3 3 4 5 5 6 7 7 8 8 8 9 9 9 10 10 10 10 10 10 11 11 11 11 12 12 13 12 11 10 9 9 8 8 7
8 8 8 8 7 7 6 6 6 4 4 4 4 4 4 5 4 4 5 5 6 6 5 6 7 8 7 6 6 7 7 7 7 7 7 7 6 8 10 10 9 8 7 6 6 6 5 5 4 4 4 4 4 5 6 7 7 8 8 8 8 8 8 8 8 8 8 8 8 9 9 9 9 9 9 9 10 10 9 9 8 8 7 6 6
9 9 8 8 7 6 6 5 5 4 3 4 4 4 4 4 5 5 6 5 5 6 6 6 7 7 6 6 6 6 6 6 7 7 8 8 6 6 8 9 9 8 7 7 7 6 6 6 5 5 5 6 6 6 7 7 7 8 8 8 8 7 7 7 7 7 7 7 7 8 8 8 8 8 8 8 8 8 8 8 8 7 6 6 6
9 8 8 7 6 6 6 5 4 3 3 3 3 4 3 4 5 5 5 5 5 6 5 6 7 6 5 6 5 6 6 6 7 7 7 7 6 5 5 6 7 7 7 7 7 6 6 6 6 6 6 6 6 7 7 7 7 7 7 7 7 7 6 6 6 6 7 7 7 8 8 8 9 9 9 8 8 8 8 8 8 8 7 7 7
8 8 6 6 6 5 5 4 3 3 3 3 3 3 3 4 4 4 5 4 5 6 5 6 7 5 5 6 6 6 5 5 6 6 5 5 5 4 4 3 3 5 6 6 6 6 6 6 6 6 6 6 6 7 7 7 7 7 7 6 6 6 6 6 6 6 6 7 7 7 8 8 9 9 10 10 10 10 10 9 9 9 8 9 9
8 7 6 6 6 5 4 4 3 3 3 3 2 3 4 4 4 5 4 4 5 6 5 6 6 5 5 5 6 5 5 5 5 5 5 4 4 4 3 3 2 2 2 4 5 5 5 5 5 5 6 6 6 6 6 7 7 6 6 6 6 6 6 6 6 6 7 7 7 8 8 9 9 10 11 11 11 11 12 11 10 11 10 10 10
7 6 5 5 5 4 4 4 3 3 3 2 2 3 3 4 5 6 5 5 4 5 5 5 5 5 5 5 6 5 5 6 5 5 5 4 4 3 3 2 2 1 0 1 3 4 4 4 5 5 5 5 6 6 6 6 6 6 6 6 6 6 7 7 7 8 9 9 9 10 10 11 12 12 13 13 13 13 13 14 13 12 12 12 11
7 6 4 4 4 4 4 4 3 2 2 2 2 3 3 4 6 6 6 6 3 4 5 4 4 5 4 5 6 5 5 5 4 5 5 4 3 3 3 2 1 1 0 1 0 2 4 4 4 4 5 5 5 5 6 6 6 6 6 7 7 7 8 8 9 10 10 11 12 12 13 14 14 14 15 15 15 15 15 15 15 14 14 13 13
7 6 3 3 3 3 4 3 3 2 2 2 2 2 3 4 5 6 6 5 4 4 4 3 3 4 4 4 5 4 4 4 4 5 5 3 3 3 3 2 2 1 1 1 1 1 4 5 4 5 5 5 5 5 6 6 6 7 7 8 9 9 10 10 11 12 12 13 13 14 15 16 16 16 16 16 15 15 15 15 16 15 15 14 14
7 6 3 3 3 3 3 3 3 2 2 1 2 3 4 4 5 6 6 5 4 4 3 2 1 2 3 4 3 3 4 4 4 3 3 4 4 3 4 3 2 2 1 1 1 1 2 5 5 6 6 6 6 6 6 6 6 7 7 8 9 10 11 11 12 13 13 14 14 15 15 16 16 16 15 16 15 15 15 15 15 15 15 15 14
6 5 3 2 3 3 3 3 3 3 3 2 2 3 5 6 6 6 5 4 4 4 3 2 1 2 3 3 3 2 3 3 2 2 2 4 3 1 3 3 2 2 2 1 1 1 1 2 3 4 6 7 7 7 7 7 7 7 7 8 9 10 10 11 12 13 13 14 14 14 14 15 15 16 16 16 15 15 14 14 14 14 14 14 14
6 5 3 3 3 3 3 3 3 3 4 4 3 4 5 5 6 6 6 4 3 3 3 2 1 2 1 1 3 2 3 2 1 2 2 3 3 1 1 2 2 2 1 1 1 2 1 1 3 2 4 7 8 8 8 7 7 7 7 8 8 9 10 12 12 13 14 14 14 14 14 15 15 16 16 16 15 14 14 13 13 13 13 13 13
6 5 4 3 3 3 3 3 3 4 4 5 5 5 5 5 5 5 5 4 3 3 4 2 1 1 1 2 4 3 3 2 1 1 1 2 3 2 1 1 2 2 1 1 0 3 4 2 3 4 4 6 7 8 9 8 7 7 7 7 9 10 11 12 13 13 14 13 13 14 14 15 16 17 18 17 17 16 14 14 13 13 12 12 12
6 5 4 3 3 3 3 3 3 3 4 4 4 4 4 5 5 5 4 3 3 4 4 2 2 2 1 2 4 4 2 1 1 1 1 1 1 3 1 2 1 1 1 2 2 4 7 7 7 9 8 7 7 6 7 6 7 7 7 8 10 11 12 13 14 13 13 13 14 15 16 16 16 17 17 17 18 17 16 15 14 14 14 13 12
6 5 4 3 3 3 3 3 3 3 3 4 4 4 4 4 5 5 4 1 2 4 5 4 3 2 1 2 2 3 2 1 1 1 1 2 1 1 1 2 2 3 3 4 6 7 9 9 9 12 12 9 8 6 5 5 6 8 8 10 11 12 13 13 13 12 13 15 15 15 14 14 14 14 14 15 15 16 16 17 15 15 16 16 13
6 6 4 4 3 3 3 3 3 3 3 3 3 3 4 3 4 5 5 3 2 3 4 5 4 3 1 1 1 1 1 1 1 1 3 2 2 2 2 2 5 4 4 6 6 6 6 8 10 15 14 12 8 4 4 4 7 9 9 12 13 12 12 11 11 12 14 15 13 13 13 13 13 13 14 15 15 16 16 17 17 16 17 17 15
6 5 4 4 4 3 3 3 3 3 2 2 3 3 3 3 4 4 5 5 5 3 3 4 5 5 3 2 1 0 1 3 2 2 4 4 4 3 2 2 3 1 4 3 4 1 4 7 10 13 15 14 10 4 2 4 6 8 9 12 12 10 10 9 11 12 13 12 12 13 13 14 14 15 16 17 17 17 18 18 17 17 17 17 16
6 5 4 4 4 3 3 3 3 3 2 2 2 3 3 3 3 3 4 5 6 5 2 4 4 3 2 2 2 2 2 4 3 1 2 3 3 2 2 2 1 2 3 3 1 5 5 6 7 9 11 13 10 7 4 4 7 8 8 10 10 9 8 10 11 11 11 11 12 13 14 15 17 18 19 19 19 18 18 18 17 17 17 16 17
6 5 4 4 4 3 2 2 2 2 2 2 2 2 2 3 3 3 4 5 6 7 5 3 2 2 2 2 2 3 3 4 4 2 2 2 3 3 3 4 3 3 4 7 9 8 5 5 7 7 9 10 8 7 6 5 8 9 8 9 10 10 10 11 11 10 11 11 12 13 15 17 18 19 20 20 20 19 18 18 16 17 17 16 16
5 5 4 4 3 3 3 2 2 2 3 2 2 2 2 3 2 3 3 4 5 5 7 6 3 2 3 3 2 3 3 3 4 4 3 2 3 3 3 4 5 5 7 10 11 10 7 6 7 6 6 7 5 5 6 6 7 6 9 11 11 12 11 11 11 10 11 11 12 13 15 18 19 20 21 21 21 21 20 19 18 18 18 16 15
6 5 5 4 4 3 3 3 3 2 3 3 2 2 2 2 1 2 2 3 3 3 4 5 5 4 4 4 4 3 4 3 3 5 6 4 3 5 5 4 6 6 9 9 7 9 9 7 7 6 5 5 4 3 5 7 6 6 10 13 12 11 11 11 11 10 10 11 12 14 16 18 20 22 22 23 23 22 21 20 20 20 18 17 14
7 6 6 5 5 4 4 4 3 3 3 2 2 2 2 2 2 1 1 1 1 2 2 3 5 5 4 3 3 4 4 4 3 6 6 6 3 6 9 6 6 5 8 8 9 8 8 7 6 6 6 6 6 5 6 6 7 9 11 12 11 11 10 11 11 10 9 11 12 15 17 19 21 23 24 24 23 21 20 20 20 19 17 15 13
7 7 7 7 6 5 4 4 4 4 3 3 3 3 2 2 2 2 1 1 1 1 2 2 2 4 3 2 3 4 2 4 4 3 3 6 3 5 9 7 8 5 4 4 8 6 6 6 5 6 7 6 6 6 7 6 7 10 10 11 11 10 10 9 9 9 9 11 14 16 19 21 22 24 24 24 22 20 20 19 19 18 16 13 11
7 7 7 7 7 6 5 4 4 4 4 3 3 2 1 2 2 2 2 2 2 2 3 3 3 4 5 3 4 5 3 4 5 3 3 5 5 7 8 7 7 7 4 4 6 5 5 6 5 6 6 6 6 7 7 6 7 10 8 9 11 9 8 8 8 10 11 13 16 18 20 21 22 24 24 22 21 20 20 19 18 16 15 13 11
8 7 7 7 7 6 6 5 5 5 4 4 3 3 2 2 2 3 3 3 3 3 4 5 4 4 6 6 6 6 5 4 5 6 5 5 6 7 7 8 8 8 7 6 7 6 5 5 5 5 6 6 6 7 8 7 8 10 7 6 9 9 8 10 10 12 13 15 17 18 20 22 22 22 22 21 19 19 20 19 18 16 14 13 11
8 7 7 7 7 7 6 6 5 5 5 4 4 4 3 3 3 4 4 3 4 4 5 6 5 5 6 6 7 7 6 5 6 7 7 7 7 7 7 8 9 9 7 6 6 6 6 6 4 4 5 6 6 6 8 8 8 10 7 5 7 10 11 12 12 13 14 15 17 18 20 21 22 21 19 19 18 18 18 18 18 17 15 14 13
7 7 7 7 7 6 6 6 6 5 5 5 5 5 5 5 5 5 5 4 5 5 6 6 6 6 6 6 8 8 7 7 7 7 7 7 7 7 7 7 7 8 8 7 6 5 6 6 5 4 5 6 5 6 8 7 7 9 8 7 8 10 13 14 13 13 14 15 17 18 20 21 21 20 18 17 17 17 17 17 17 17 17 16 15
7 7 7 7 7 7 7 7 6 6 6 6 6 6 5 6 6 6 6 6 6 6 6 7 7 7 7 7 7 9 8 8 8 8 7 7 7 7 8 7 6 6 6 6 5 5 5 6 5 2 4 6 5 5 7 6 7 9 9 9 10 10 13 14 13 13 14 16 18 18 20 20 20 19 18 17 16 17 17 17 17 17 17 17 17
7 7 7 7 7 7 7 7 7 7 7 7 7 7 6 7 7 6 7 6 5 6 7 7 7 7 7 7 7 8 8 8 9 8 6 6 7 7 7 7 6 5 5 4 5 7 6 7 7 2 2 5 5 5 6 6 8 11 10 10 10 10 13 13 11 13 14 15 17 18 19 19 19 18 18 17 17 17 17 18 18 18 18 18 17
8 7 7 7 8 8 8 8 7 7 7 7 7 7 7 7 7 6 7 6 5 6 7 7 8 8 7 7 7 8 8 8 8 8 6 6 7 7 7 7 6 6 6 5 5 8 9 8 8 4 3 5 6 7 8 7 8 10 11 10 10 12 13 11 10 14 15 15 17 17 18 18 17 17 17 17 18 17 18 18 18 19 18 18 17
8 8 8 8 8 8 9 9 8 8 8 8 8 8 8 8 8 8 7 7 7 7 8 8 8 7 7 7 7 7 7 8 8 8 7 7 7 8 7 7 7 7 7 7 5 6 10 9 8 7 6 6 7 8 10 9 9 11 11 10 11 12 12 10 10 13 13 14 17 17 17 17 16 17 17 17 18 18 18 18 18 18 18 17 17
9 9 9 9 8 9 9 9 10 9 9 9 8 9 9 9 8 8 7 6 7 8 8 8 8 7 7 8 8 8 8 8 9 9 9 8 8 8 8 7 7 7 7 7 6 6 9 9 7 8 7 7 8 8 9 10 10 11 11 10 11 12 11 10 10 11 11 13 17 18 16 16 15 16 16 16 16 17 17 17 18 18 18 17 17
9 9 10 10 9 9 9 9 9 9 9 9 9 9 9 9 9 9 8 8 8 9 9 9 9 8 8 8 9 9 9 9 9 10 10 9 9 8 8 7 7 6 5 6 8 7 8 8 8 8 8 8 8 8 9 10 10 11 11 10 10 10 10 10 10 9 9 13 17 18 16 15 15 15 15 15 15 16 16 17 17 17 17 17 17
10 10 10 10 10 10 10 10 9 9 9 9 9 9 10 10 10 10 10 9 10 10 9 9 10 9 9 9 10 10 9 10 10 10 10 9 9 8 8 7 7 6 5 5 7 8 8 8 8 8 8 8 8 8 9 10 10 11 11 12 12 12 10 11 12 8 9 15 18 17 15 15 15 14 14 14 14 15 16 16 17 17 17 17 17
10 11 11 10 10 10 10 10 9 9 9 9 10 10 10 10 10 11 10 9 10 10 10 10 10 10 10 10 11 10 9 9 8 9 9 9 9 8 8 8 8 7 6 6 6 8 9 9 9 9 9 9 10 10 9 10 10 11 12 12 13 14 12 12 13 10 12 16 16 14 15 15 14 13 13 13 14 15 15 15 15 16 17 17 17
11 11 11 10 10 10 10 11 10 10 10 10 10 10 11 11 11 11 11 10 11 11 11 11 11 11 11 11 11 10 10 9 8 9 9 8 8 8 8 8 8 8 8 7 7 8 9 10 10 10 10 10 11 10 10 10 11 11 11 11 11 12 11 12 13 12 13 14 12 11 13 14 13 12 12 13 14 14 15 15 15 17 17 17 17
11 10 10 10 10 11 11 11 11 10 10 10 10 11 11 11 11 11 11 11 11 12 12 12 12 12 12 12 11 11 10 10 9 9 9 8 8 9 9 8 8 8 8 8 9 9 9 11 11 11 11 11 11 10 10 10 11 12 11 11 11 10 10 11 12 12 11 11 10 10 10 12 12 12 12 14 14 15 16 16 16 17 17 17 17
11 11 10 10 10 10 11 11 11 11 10 10 10 11 11 12 11 11 11 11 12 12 12 12 12 13 13 12 12 11 11 11 10 9 8 8 9 9 9 9 8 8 8 9 10 10 10 11 12 11 11 11 10 10 9 9 10 12 11 11 11 9 9 11 12 11 10 10 10 9 8 9 10 11 12 13 14 16 17 17 17 18 18 18 17
12 12 11 11 10 10 10 11 11 11 10 10 11 11 12 12 12 12 12 12 13 12 12 13 13 13 13 13 12 12 11 11 11 10 9 9 10 10 8 7 8 8 8 8 11 12 11 11 11 11 11 11 10 10 9 7 8 10 9 10 11 10 10 11 11 11 10 10 10 9 8 7 6 8 10 11 13 16 18 18 19 19 19 18 17
12 12 12 11 11 11 11 11 11 11 11 11 11 11 12 12 12 13 13 13 13 13 13 13 13 13 13 13 13 13 12 11 10 10 9 9 9 9 7 7 8 9 8 8 10 11 12 12 11 10 12 11 9 9 9 7 8 8 8 9 10 11 11 11 10 9 9 10 10 9 8 6 6 7 8 9 13 16 17 18 19 19 19 18 16
12 11 11 11 11 11 11 11 11 11 12 13 13 12 12 12 12 13 13 13 13 13 12 13 12 12 13 13 14 13 11 10 11 11 10 10 11 10 8 7 9 9 8 8 8 9 11 12 11 10 10 10 9 9 9 9 9 9 8 9 11 12 12 12 9 7 7 10 10 10 8 6 7 7 6 7 10 13 15 17 18 18 18 16 15
11 10 10 10 11 11 11 11 11 12 13 13 12 13 13 12 12 12 12 12 12 11 12 13 13 13 14 16 16 15 14 13 14 13 13 12 12 12 11 10 9 8 7 7 8 10 11 11 10 10 10 10 11 11 11 11 10 8 8 10 13 13 12 11 8 5 6 10 11 10 8 7 7 7 7 6 8 10 14 16 17 16 15 15 15
10 10 10 11 11 12 12 11 12 13 11 9 10 12 13 13 13 13 13 12 12 11 12 14 15 15 15 15 15 13 12 13 13 12 13 13 13 13 12 12 12 10 9 9 9 11 12 11 10 11 11 12 12 12 12 12 9 8 10 12 12 11 10 10 8 6 7 10 11 10 8 7 7 7 6 5 6 9 12 14 14 13 13 13 14
11 11 11 12 12 12 12 12 13 12 9 9 11 12 12 13 14 14 14 12 11 12 12 13 14 15 15 14 13 12 12 12 11 10 11 13 14 14 12 12 13 12 12 11 10 10 11 11 11 12 12 11 11 11 10 8 8 9 11 10 9 9 10 9 9 8 9 10 10 10 8 6 6 7 5 3 4 8 10 10 10 12 12 12 13
11 11 11 11 11 12 12 12 13 11 11 12 13 12 11 13 14 15 14 12 13 15 15 14 15 16 15 14 13 14 16 16 14 11 11 13 14 14 13 13 14 14 14 15 14 13 12 11 12 12 10 9 9 8 6 6 8 11 11 10 9 9 9 9 10 9 8 8 9 10 10 7 6 7 5 3 3 5 8 8 8 10 11 11 12
10 10 10 10 10 11 11 12 12 11 11 13 13 13 14 15 16 16 15 14 16 19 18 17 18 18 16 14 13 13 14 15 15 13 12 14 14 13 13 14 15 14 15 16 16 15 13 12 12 11 8 6 6 6 5 6 8 9 10 10 9 8 9 9 10 9 5 5 8 9 10 8 6 7 6 3 2 2 6 7 7 8 9 10 11
9 8 9 9 8 8 9 11 12 10 8 10 12 14 15 16 18 17 15 14 15 16 17 17 19 20 18 15 14 14 13 13 15 16 14 14 15 14 16 17 16 15 15 14 13 11 10 9 9 9 7 4 4 5 6 7 8 8 8 8 7 7 8 8 9 9 3 3 7 9 9 10 8 7 7 5 2 1 2 5 7 8 8 9 10
7 7 7 7 6 6 6 7 8 8 8 10 13 15 16 17 17 14 12 12 12 14 16 17 18 18 16 12 12 13 13 13 16 17 17 16 16 16 18 19 18 15 14 16 16 13 11 10 10 9 8 7 6 6 6 5 5 6 7 7 6 7 8 7 9 9 2 6 8 10 10 11 9 7 8 8 6 4 3 3 5 8 9 9 9
6 6 6 6 4 3 2 3 5 5 7 11 13 14 15 16 13 10 9 10 11 12 13 14 15 13 11 9 8 8 8 10 14 17 18 18 17 16 17 19 18 14 9 9 12 12 11 11 11 10 9 7 5 3 2 0 1 3 5 6 6 7 8 6 7 9 5 7 10 11 11 11 9 8 10 10 9 7 5 3 4 8 10 10 9
5 5 6 5 4 3 2 2 3 2 4 9 10 10 11 12 11 9 8 8 10 11 11 12 11 8 7 9 9 7 6 9 12 14 15 15 13 12 14 16 16 14 10 5 7 9 8 8 7 6 5 4 4 4 4 3 3 4 6 7 6 6 7 6 6 9 6 7 11 12 10 10 10 9 10 12 10 8 5 3 4 7 8 8 8
5 5 4 4 3 2 2 2 2 2 2 7 7 7 8 9 8 7 7 8 10 10 11 12 10 4 4 7 8 7 7 9 10 11 11 11 9 9 11 12 12 13 12 8 7 7 5 4 3 4 5 6 7 5 4 4 5 6 8 7 7 6 6 6 6 8 5 5 11 12 10 10 11 9 9 11 9 5 3 3 5 6 5 5 6
Wind_Direction
130 127 125 123 123 125 124 120 114 108 102 93 88 84 82 75 63 59 53 44 55 56 49 65 81 75 66 69 77 80 83 85 85 86 82 88 81 60 67 75 74 78 79 81 85 77 70 56 22 348 328 314 302 309 313 311 317 319 316 314 314 310 306 308 307 306 305 306 307 306 307 309 309 307 303 301 301 301 299 297 299 305 310 313 318
127 127 126 125 127 128 124 122 114 104 100 95 89 85 79 72 58 47 42 36 48 52 49 60 76 79 75 74 84 87 88 90 89 91 87 89 91 70 65 73 76 77 79 76 73 69 62 54 43 30 9 358 348 342 338 334 336 336 333 332 329 324 320 323 323 323 324 325 327 326 326 327 325 322 317 313 309 305 302 300 298 304 308 311 313
128 127 128 129 130 129 124 120 113 103 98 99 93 84 78 67 49 34 32 31 46 52 55 66 71 77 81 82 87 89 88 92 92 91 90 90 95 86 68 68 72 72 72 69 65 61 55 49 38 31 21 14 7 359 354 350 348 346 346 345 343 342 342 344 342 342 343 343 346 347 348 348 345 339 334 328 319 310 303 299 297 301 304 302 297
128 129 131 130 131 131 124 118 113 108 94 93 91 83 80 68 47 29 24 27 52 60 60 72 75 76 86 89 88 86 83 84 89 91 94 93 96 102 87 69 67 66 65 60 57 52 46 42 34 27 22 17 13 8 4 359 358 355 355 353 351 352 350 350 352 351 351 350 351 351 351 351 348 342 337 332 325 316 306 300 294 294 293 291 288
131 130 131 129 128 129 124 120 113 110 98 91 94 85 79 68 47 32 29 34 56 64 66 76 82 80 83 88 84 81 84 88 94 94 95 97 96 100 105 101 78 61 60 58 53 47 39 33 28 24 21 19 14 11 7 3 3 1 359 357 353 351 349 348 348 348 347 347 345 344 343 340 338 333 330 327 323 319 314 310 303 296 293 287 284
134 130 132 133 129 126 122 119 111 113 108 94 101 90 72 56 43 33 31 41 56 63 65 76 86 82 73 78 78 75 82 84 89 93 92 95 99 100 106 115 119 90 57 44 38 35 34 28 24 23 18 18 15 11 9 6 3 1 359 355 352 347 344 342 338 338 335 334 333 331 330 326 324 323 321 320 317 315 313 311 308 302 299 295 290
136 132 132 134 132 127 117 110 107 116 110 93 93 85 66 50 38 26 26 34 55 75 75 77 88 87 80 79 75 71 80 83 85 98 98 95 96 100 101 102 114 129 187 339 13 16 22 23 18 20 18 14 13 10 6 4 358 353 349 342 342 339 335 334 330 329 326 325 324 321 320 317 315 315 314 314 312 312 310 307 306 303 301 300 299
140 135 131 136 131 123 116 102 95 104 100 88 90 77 60 49 31 23 26 20 29 77 85 91 100 98 100 95 81 70 78 87 90 88 84 88 100 102 103 106 98 79 120 167 347 350 6 16 13 8 10 8 6 4 357 353 347 339 336 332 331 332 329 328 325 324 324 323 321 319 317 315 313 312 311 310 309 308 307 306 304 302 301 299 298
143 137 130 138 124 114 114 97 84 85 75 79 92 72 47 41 32 23 20 9 12 61 82 103 120 121 119 99 80 68 78 82 78 83 84 83 92 102 105 109 108 71 37 97 130 326 349 356 5 2 357 357 351 350 346 339 335 328 324 323 321 324 324 322 322 322 322 322 321 319 316 314 312 310 308 307 305 305 304 303 302 301 299 296 294
147 141 130 134 123 110 103 89 79 69 57 77 90 64 37 31 31 20 12 8 10 33 54 54 102 128 109 93 75 59 82 86 79 84 94 90 84 99 105 98 103 90 47 42 27 19 352 341 358 359 344 345 344 340 341 336 334 329 324 321 320 321 321 321 321 322 323 324 323 321 318 316 313 309 308 306 304 302 300 300 299 299 297 295 291
150 146 137 133 127 113 96 82 77 64 52 74 85 60 36 22 22 15 5 7 16 25 44 39 17 64 60 83 87 70 81 84 96 100 86 94 89 90 116 112 113 104 95 93 27 353 11 331 346 350 326 327 333 330 331 334 335 337 334 332 329 327 324 324 324 325 326 326 325 324 321 318 315 311 311 309 306 301 298 296 295 295 294 294 293
155 151 144 133 127 115 99 82 76 69 59 60 65 57 40 21 15 9 357 2 35 42 50 37 13 66 47 100 97 93 95 77 116 127 116 116 110 283 168 133 128 122 126 114 40 304 294 303 305 311 313 315 322 325 323 327 331 336 340 340 337 332 328 327 327 328 327 326 325 323 321 318 315 313 312 310 306 301 296 292 289 289 288 290 291
160 156 148 140 136 122 98 83 76 73 63 58 59 58 47 27 12 4 359 9 29 45 52 25 255 123 175 164 128 126 119 126 180 115 118 128 138 189 197 175 173 159 180 185 294 295 287 282 299 302 300 297 304 315 320 328 332 333 339 339 337 331 327 325 325 325 325 325 325 322 320 317 314 312 309 306 303 299 296 290 284 281 282 283 284
161 157 152 150 146 127 104 92 83 75 69 68 70 67 54 38 24 10 359 12 32 34 30 328 254 103 89 194 146 140 131 167 135 59 39 65 155 179 188 247 221 84 306 303 335 338 328 340 340 314 303 292 285 289 303 316 319 321 335 337 335 330 324 324 323 326 328 328 326 321 320 319 318 316 313 310 305 301 297 291 284 279 278 278 277
164 162 159 154 145 130 116 105 92 80 73 75 81 80 65 44 38 24 346 320 88 53 20 343 346 79 155 215 169 151 153 215 125 29 6 40 330 161 238 270 37 16 336 1 2 2 348 342 333 312 306 303 286 271 280 292 298 309 330 331 329 326 322 323 325 328 330 328 326 324 325 326 327 329 328 325 318 311 304 296 287 279 277 276 275
165 165 162 151 143 133 122 115 105 89 81 85 88 91 84 59 48 34 355 338 39 62 44 13 15 23 270 218 218 187 168 242 153 5 336 6 355 14 318 321 50 4 333 9 342 332 337 329 327 320 319 317 298 268 274 295 303 314 330 327 326 325 321 324 326 328 329 330 333 334 335 336 335 337 336 335 330 325 319 308 297 285 279 275 272
167 166 158 146 144 134 120 124 119 102 94 100 95 95 96 75 55 39 21 10 352 9 67 48 36 27 354 0 295 255 16 320 347 2 328 348 4 18 329 332 58 296 295 313 277 338 355 331 335 329 327 326 316 301 286 296 308 322 335 332 332 331 325 326 327 327 329 334 340 339 340 339 337 337 335 334 331 328 324 319 312 300 291 282 274
174 171 159 150 148 137 124 129 124 113 105 106 112 116 110 90 63 39 33 27 353 337 44 71 50 33 23 46 4 357 9 324 324 343 322 338 347 15 7 335 321 249 269 272 255 66 19 327 329 323 328 336 333 330 319 327 337 341 346 344 345 340 330 329 327 328 331 336 339 340 344 343 341 339 336 334 330 328 326 324 324 317 310 298 287
181 176 166 157 153 146 140 137 134 131 127 134 147 139 114 99 70 48 33 29 19 350 345 28 48 23 25 54 40 15 3 344 344 329 307 334 336 348 348 327 320 326 350 356 3 15 1 338 333 320 327 340 347 338 321 335 344 347 354 355 351 339 331 330 328 328 332 337 338 340 345 344 345 342 337 334 329 327 326 324 327 324 323 316 304
189 184 179 173 168 160 156 155 150 144 153 170 166 136 111 103 77 62 40 26 36 10 345 349 359 33 24 359 22 17 348 6 355 326 330 345 328 319 323 328 322 336 11 16 0 342 345 0 340 328 331 336 350 337 327 339 338 343 350 347 343 335 332 334 332 331 331 335 335 336 339 339 341 339 335 333 329 326 324 321 320 318 320 323 317
199 196 190 186 185 179 172 172 170 168 180 185 165 143 123 112 101 80 58 31 31 18 357 349 346 16 28 4 359 342 331 335 328 357 356 335 324 322 327 337 320 349 25 17 342 325 337 349 335 339 350 345 356 344 342 349 336 338 342 340 339 336 336 338 336 334 329 329 330 331 335 335 336 336 334 334 334 333 329 324 323 321 319 319 320
199 199 199 197 193 191 188 184 183 186 192 190 177 170 166 157 151 132 80 50 21 351 349 347 347 355 9 16 349 326 338 318 329 34 350 309 355 323 310 329 336 10 39 357 328 328 333 333 332 347 354 351 0 354 348 346 339 344 344 343 343 334 333 335 333 333 328 327 332 333 334 334 333 334 335 338 340 340 337 334 334 333 329 323 318
198 197 200 199 196 195 195 192 189 190 194 196 201 200 189 183 173 173 198 225 244 277 306 305 319 319 316 328 303 301 327 308 320 45 310 306 9 301 296 332 339 347 59 355 324 319 320 329 341 357 356 351 2 356 340 337 345 351 346 341 339 331 331 336 335 336 335 335 337 336 334 333 334 335 336 340 344 344 342 342 341 341 341 335 325
204 200 199 196 193 195 197 197 196 197 202 202 209 225 223 198 186 198 208 216 237 249 263 269 274 284 287 285 285 291 300 304 313 322 301 320 327 297 311 339 325 324 1 350 322 311 321 335 344 359 358 354 6 357 337 336 348 352 349 341 344 348 348 351 350 345 343 341 338 335 333 334 335 336 337 341 345 346 346 347 346 347 349 346 340
209 206 204 198 193 196 199 200 200 202 209 213 218 231 241 232 218 219 221 217 229 239 247 260 268 272 282 290 290 293 297 300 304 304 302 302 293 300 324 327 316 321 332 330 324 322 326 330 338 2 1 353 0 356 343 343 351 354 357 351 356 8 5 356 354 348 344 340 336 335 334 334 336 337 338 341 344 345 348 350 349 349 351 348 344
212 209 207 203 198 198 200 202 203 206 214 222 227 228 232 238 238 234 232 226 232 240 247 255 259 261 272 285 289 292 293 293 292 295 300 303 305 314 322 315 311 314 316 315 319 321 325 328 338 1 2 350 349 353 348 347 356 2 9 6 353 356 357 353 349 345 342 338 336 335 335 334 335 337 338 339 342 345 347 351 352 354 356 352 344
211 210 208 206 204 203 205 208 207 211 219 223 228 229 227 233 239 243 245 238 237 245 252 258 257 259 264 271 280 284 284 287 288 289 297 305 312 316 317 312 308 313 315 313 315 317 318 321 330 350 355 347 341 348 354 353 354 358 2 357 342 337 342 344 343 342 340 337 336 336 336 335 336 337 336 335 340 345 346 349 353 355 359 0 357
212 210 209 209 209 211 215 216 215 217 222 223 227 226 225 233 238 243 250 247 243 249 257 262 261 260 263 264 272 278 281 285 288 291 296 304 309 308 306 307 308 315 315 313 318 316 315 318 320 338 347 338 332 338 349 352 348 348 343 337 336 329 330 335 339 341 340 338 337 336 336 335 336 336 334 334 339 343 346 348 350 352 354 359 2
216 211 209 210 213 218 221 224 223 223 225 225 229 229 227 236 242 243 250 253 251 254 258 263 263 264 266 265 268 275 278 280 281 285 288 293 298 296 296 299 298 300 306 310 316 317 322 321 318 348 21 335 322 325 335 332 335 342 334 326 331 328 326 331 337 341 341 339 336 334 335 335 334 333 332 335 340 342 344 345 347 349 349 351 355
217 214 211 212 216 220 224 230 229 227 230 231 230 230 231 236 242 244 247 251 253 255 257 261 263 265 269 272 274 275 276 273 273 278 276 275 282 284 283 284 280 284 292 297 309 317 317 314 318 339 4 336 325 327 336 329 326 337 334 324 326 327 329 332 331 332 335 338 336 333 333 334 332 331 332 336 340 341 342 342 342 344 344 345 346
215 216 218 219 220 220 222 227 229 228 230 232 231 230 231 235 241 244 238 234 243 254 257 258 259 260 265 271 274 274 277 277 277 277 272 267 273 278 275 272 270 271 278 285 291 300 303 308 321 328 333 338 332 329 334 333 332 338 335 323 321 327 332 330 319 317 321 332 336 334 334 335 332 333 335 337 339 339 340 341 341 343 343 342 341
216 216 221 226 227 225 224 226 228 229 228 230 232 228 229 233 240 248 243 231 241 255 258 259 261 260 262 266 268 270 274 275 275 274 269 265 266 270 272 269 266 262 263 275 282 287 296 304 313 319 327 333 329 328 332 333 333 337 334 324 321 325 330 330 320 310 312 328 336 336 337 337 337 339 340 340 342 342 344 346 347 348 348 347 346
219 219 222 227 229 229 231 231 232 234 231 232 234 230 229 232 237 246 249 246 250 256 259 260 261 261 260 260 263 265 267 269 271 272 270 268 264 264 267 266 266 268 260 267 283 292 297 302 306 313 321 322 324 331 332 332 333 333 332 326 321 321 326 334 329 310 309 329 338 340 341 341 342 344 345 346 348 349 351 353 354 355 355 355 354
219 222 223 225 227 228 232 234 235 236 235 234 237 236 234 235 239 244 245 242 245 250 254 255 256 258 258 257 259 261 261 261 265 270 273 274 273 270 271 273 275 276 266 264 282 292 295 301 306 310 314 314 319 327 327 328 331 328 326 327 326 324 327 334 331 316 316 332 339 344 345 346 348 349 351 354 355 356 356 358 0 1 1 1 360
218 220 224 225 225 226 230 233 234 237 238 238 239 240 239 241 245 250 251 249 248 250 252 253 253 253 253 254 257 259 262 263 264 270 274 275 278 279 278 280 283 285 280 269 271 282 291 298 301 304 310 311 313 318 318 319 322 321 321 327 328 326 326 333 333 327 328 334 340 346 348 351 352 352 357 359 359 0 359 0 4 5 5 5 4
221 219 222 225 225 224 228 232 233 235 237 238 240 241 241 244 247 251 254 253 254 255 256 257 257 255 254 255 257 259 262 263 264 268 270 268 270 273 273 274 276 280 281 274 268 272 282 289 293 297 302 303 303 307 310 313 319 319 317 322 325 325 329 335 335 332 332 336 343 348 349 352 354 357 3 3 2 3 2 2 5 5 6 6 7
225 223 221 224 225 225 228 231 232 233 235 236 240 243 243 245 248 251 253 253 254 256 257 258 257 256 256 256 257 259 257 257 260 263 267 268 269 270 271 273 277 279 281 280 274 268 270 279 287 290 292 293 294 298 303 307 315 319 317 320 323 327 331 333 333 335 337 339 341 343 347 350 353 1 10 8 7 7 6 6 6 4 6 8 10
224 225 225 224 226 226 229 232 231 230 232 233 236 241 244 246 247 250 253 254 254 255 256 256 255 253 254 255 255 257 255 255 259 263 267 270 268 268 268 272 281 284 285 294 291 280 272 276 282 285 287 291 293 297 300 302 310 316 318 322 325 328 330 331 333 335 339 339 334 335 346 349 350 359 7 9 12 14 12 10 9 9 9 11 13
220 224 226 225 225 228 229 233 234 231 231 233 234 237 241 244 245 247 250 252 252 253 253 254 254 254 254 255 253 252 251 252 256 259 262 264 265 267 270 277 288 287 288 303 305 294 285 282 285 293 298 300 300 301 301 298 301 307 313 318 322 325 328 329 332 335 338 341 337 336 344 345 345 0 5 2 8 15 15 12 12 12 11 11 13
219 223 225 224 225 229 230 232 234 234 233 234 235 236 238 240 242 244 248 251 252 252 251 253 256 258 260 261 258 255 251 248 251 256 259 264 269 271 276 282 286 287 289 296 299 298 297 295 296 302 301 299 299 301 303 302 301 304 311 314 315 321 325 326 331 338 340 343 342 339 340 335 334 356 6 1 5 11 13 11 11 10 9 8 9
224 225 227 229 228 229 231 233 234 236 236 236 235 233 234 238 244 247 248 249 250 252 252 254 258 263 267 268 268 274 272 254 245 253 260 265 267 268 274 276 273 277 284 289 292 296 296 293 295 297 295 294 300 306 309 311 309 306 307 311 313 318 322 322 328 345 350 343 341 340 342 337 331 342 354 2 14 14 9 9 10 6 5 5 4
229 231 232 234 234 235 235 234 236 238 239 240 237 232 234 241 247 250 252 252 252 254 256 259 262 263 265 265 265 273 279 269 262 267 271 269 264 261 260 259 260 267 274 284 293 290 282 283 293 300 299 302 309 310 309 310 310 310 311 315 317 321 324 324 325 346 359 349 341 337 339 341 336 342 352 3 23 22 11 11 11 4 3 2 3
228 231 233 235 238 242 241 240 241 240 242 245 242 242 252 259 256 253 253 252 252 257 263 265 266 265 264 264 264 263 265 266 267 273 280 282 278 268 260 257 260 262 257 262 275 278 278 287 299 303 304 306 308 306 306 311 316 322 320 317 320 325 327 327 323 330 351 353 345 332 332 342 340 341 353 5 15 17 13 15 12 4 2 2 3
226 228 232 236 239 242 245 246 247 249 260 265 251 247 260 271 270 263 258 259 264 269 269 266 266 268 267 266 268 270 271 270 264 259 270 281 283 279 273 267 264 260 251 250 257 265 277 291 296 298 301 304 305 306 311 320 322 320 317 317 322 323 321 321 319 323 340 350 345 332 326 334 334 332 355 40 32 13 14 18 12 3 2 3 4
229 231 232 235 237 242 245 248 251 256 266 270 265 259 261 269 273 269 265 269 270 265 262 262 264 269 269 266 267 274 278 281 278 269 264 267 270 274 277 271 264 262 260 257 258 262 271 283 288 291 296 297 301 309 320 324 318 316 315 315 317 317 314 315 317 321 332 343 345 334 322 326 336 333 348 66 87 17 7 11 10 4 1 2 4
227 231 237 240 242 245 246 248 255 255 249 253 264 269 268 269 273 270 262 258 257 256 258 261 264 265 265 265 267 273 277 280 282 277 266 261 261 262 265 262 254 254 261 262 260 259 262 270 277 283 289 286 290 305 317 319 317 317 316 317 319 317 315 316 315 311 312 345 351 337 322 326 339 333 333 4 92 18 355 356 3 4 360 0 2
222 226 235 241 247 254 254 255 259 257 248 253 262 264 264 266 270 270 261 252 251 255 258 262 263 263 261 258 260 268 273 275 278 276 265 262 266 262 257 253 245 244 251 249 242 240 246 258 270 276 276 266 278 301 311 314 316 315 314 315 314 308 308 318 319 304 279 60 16 348 326 322 327 329 329 329 308 253 323 333 341 352 355 356 358
216 215 222 225 237 257 267 272 272 265 258 260 260 259 261 265 267 269 264 256 250 249 255 260 261 259 257 252 257 273 280 276 275 271 258 254 262 264 259 257 255 253 245 229 223 227 235 244 252 254 254 260 277 292 297 305 315 317 311 304 302 309 314 325 325 313 331 71 36 4 334 317 318 328 324 314 301 274 250 278 316 340 349 348 349
202 205 213 207 210 231 255 288 289 275 259 258 259 262 266 267 266 265 263 263 259 257 261 262 260 261 259 246 244 268 279 265 258 258 255 257 264 267 266 266 268 273 265 231 230 244 248 249 251 248 249 258 266 267 266 34 20 359 346 333 332 336 332 331 326 318 339 55 36 3 333 314 319 327 319 313 304 282 261 248 300 333 345 346 345
199 205 207 190 189 206 206 239 255 265 278 276 273 276 278 274 269 262 259 263 268 271 272 268 265 264 250 237 236 239 242 248 254 259 264 269 273 276 277 279 282 288 295 273 244 251 250 249 250 238 222 197 168 158 138 113 86 57 41 19 3 356 340 334 329 316 323 53 37 2 331 317 324 329 324 319 305 273 253 262 303 320 336 345 347
211 216 213 198 197 196 168 161 144 116 328 308 304 305 303 296 285 273 270 272 273 277 279 279 282 278 232 243 262 267 261 267 277 285 285 283 288 295 294 295 295 293 291 276 245 230 212 188 165 145 139 136 138 134 107 81 66 66 63 40 21 17 351 332 328 314 307 37 26 2 340 321 322 331 335 328 318 293 263 271 296 307 319 330 335